Regional Weather Roundup
Issued by NWS

Home | Current Version | Previous Version | Text Only | Print | Product List | Glossary On
Versions: 1 2 3 4 5 6 7 8 9 10 11 12 13 14 15 16 17 18 19 20 21 22 23 24 25 26 27 28 29 30 31 32 33 34 35 36 37 38 39 40 41 42 43 44 45 46 47 48 49 50
000
ASUS44 KLUB 270910
RWRTX
WEST TEXAS WEATHER ROUNDUP
NATIONAL WEATHER SERVICE LUBBOCK TX
400 AM CDT WED AUG 27 2014

NOTE: "FAIR" INDICATES FEW OR NO CLOUDS BELOW 12,000 FEET WITH NO
SIGNIFICANT WEATHER AND/OR OBSTRUCTIONS TO VISIBILITY.

TXZ004-006>008-010-012-014-016-OKZ002-271000-
TEXAS PANHANDLE/OKLAHOMA PANHANDLE

CITY           SKY/WX    TMP DP  RH WIND       PRES   REMARKS
AMARILLO       MOCLDY    67  64  90 NE8       30.16F
CANADIAN       CLOUDY    73  67  83 N7        30.11R
DALHART        MOCLDY    67  63  87 SE8       30.18S
DUMAS          CLOUDY    65  64  96 E6        30.17S
GUYMON         CLOUDY    67  66  97 E3        30.13F
HEREFORD       CLOUDY    68  66  93 N5        30.18S
PAMPA          TSTM      66  64  91 NE12      30.16F
PERRYTON       CLOUDY    67  65  93 NE12      30.14F
$$

TXZ026-029-035-045-048-271000-
SOUTHERN PANHANDLE/SOUTH PLAINS/ROLLING PLAINS

CITY           SKY/WX    TMP DP  RH WIND       PRES   REMARKS
CHILDRESS      MOCLDY    78  63  59 SE8       30.06F
SEMINOLE       PTCLDY    72  57  60 NE5       30.12F
LUBBOCK        MOCLDY    73  60  63 N5        30.13R
PLAINVIEW      PTCLDY    70  61  74 S3        30.13F
SNYDER         CLEAR     78  64  61 SE8       30.08F
$$

TXZ052-054-060>062-072-078-127-140-154-169-271000-
PERMIAN BASIN/CONCHO VALLEY/BIG COUNTRY/EDWARDS PLATEAU

CITY           SKY/WX    TMP DP  RH WIND       PRES   REMARKS
ABILENE        CLEAR     78  65  63 SE7       30.05F
BIG SPRING     CLEAR     79  61  54 SE8       30.10R
BRADY          CLEAR     75  66  73 SE5       30.05S
BROWNWOOD      MOCLDY    75  66  73 E3        30.05S
JUNCTION       CLEAR     77  68  73 E3        30.05S
MIDLAND        PTCLDY    77  56  48 SE7       30.08S
ODESSA         CLEAR     77  56  48 S6        30.09S
SAN ANGELO     CLEAR     78  65  63 CALM      30.04S
SONORA         CLEAR     77  66  69 CALM      30.10R
SWEETWATER     CLEAR     79  64  61 SE9       30.10F
WINK           PTCLDY    75  61  61 E5        30.05F
$$

TXZ055-058-074-075-080-082-271000-
FAR WEST/SOUTHWEST MOUNTAINS/TRANS PECOS

CITY           SKY/WX    TMP DP  RH WIND       PRES   REMARKS
ALPINE         MOCLDY    64  55  70 W3        30.23S
DRYDEN           N/A     82  59  45 SE5       30.03S
EL PASO        LGT RAIN  70  65  84 N3        30.15F
FORT STOCKTON  CLEAR     73  55  53 S7        30.08S
GUADALUPE PASS MOCLDY    66  59  78 W8        30.27S
MARFA          CLEAR     61  55  82 N6        30.22S
PECOS          CLEAR     71  61  69 W6        30.05S
PRESIDIO       FAIR      82  55  38 NE10      30.04F
$$

TXZ014-016-019-021>030-083-271000
TEXAS TECH WEST TEXAS MESONET/TEXAS PANHANDLE/NORTHERN SOUTH PLAINS

CITY           SKY/WX    TMP DP  RH WIND       PRES   REMARKS
ABERNATHY 5ENE   N/A     72  60  66 SW7       30.14S
AMARILLO 9NNE    N/A     68  65  90 NE3       30.15F
AMARILLO 7SSE    N/A     66  65  96 N5        30.18R
AMHERST 1NE      N/A     70  63  77 N5        30.15S
BOOTLEG 11WNW    N/A     64  62  94 CALM      30.22F
CANADIAN 6E      N/A     71  67  86 NW5       30.10R
CAPROCK CYN SP   N/A     76  64  65 S9        30.09S
CHILDRESS 2NNE   N/A     76  63  64 SE8       30.05F
CLARENDON 2WSW   N/A     73  62  66 NW1       30.12F
CLAUDE 12SW      N/A     67  66  97 NE6       30.15S
DIMMITT 2NE      N/A     67  61  82 N6        30.17S
FLOYDADA 2NNE    N/A     72  63  74 S8        30.11F
FRIONA 2NE       N/A     67  62  84 NE6       30.19S
GOODLETT 3W      N/A     77  63  62 E7        30.04F
HART 3N          N/A     67  62  86 N5        30.15F
HEREFORD 2NW     N/A     66  62  87 N5        30.17F
MCLEAN 1E        N/A     75  64  67 S7        30.11R
MEMPHIS 1NE      N/A     79  65  62 S2        30.06F
MULESHOE 2SSW    N/A     68  63  84 NE7       30.16F
OLTON 6S         N/A     71  60  69 SE7       30.14F
PALO DURO SP     N/A     68  64  86 E2        30.16S
PAMPA 2E       RAIN      66  64  94 NW9       30.15F
PLAINVIEW 1S     N/A     72  62  71 S2        30.13F
SILVERTON 7ESE   N/A     74  62  65 S9        30.12S
TULIA 2ENE       N/A     70  63  78 S5        30.15S
TURKEY 2WSW      N/A     73  65  75 S5        30.07F
UMBARGER 3NNE    N/A     68  64  86 NE6       30.18S
$$

TXZ033>036-039>041-045>048-271000
TEXAS TECH WEST TEXAS MESONET/SOUTH PLAINS

CITY           SKY/WX    TMP DP  RH WIND       PRES   REMARKS
AIKEN 3WSW       N/A     69  63  80 SW7       30.14S
ANDREWS 2NE      N/A     74  58  56 CALM      30.10S
ANTON 6SSW       N/A     73  58  59 SE3       30.13F
BROWNFIELD 2S    N/A     73  55  54 SE6       30.12F
DENVR CTY 7WNW   N/A     71  61  71 NE6       30.13S
GAIL 2ESE        N/A     79  62  56 SE7       30.07S
LAMESA 2SE       N/A     76  59  54 SE5       30.11S
LEVELLAND 4S     N/A     68  56  63 E6        30.14F
LUBBOCK 3WNW     N/A     75  60  60 S1        30.13S
MORTON 1ENE      N/A     69  64  82 NW5       30.15S
ODONNELL 1N      N/A     77  59  52 SE8       30.11S
PLAINS 3N        N/A     71  61  70 NE8       30.14S
RALLS 1SE        N/A     76  62  61 SE9       30.11F
REESE CENTER     N/A     76  57  52 S2        30.13F
SEAGRAVES 1SW    N/A     69  57  65 E1        30.12F
SEMINOLE 2NNE    N/A     72  58  62 NE5       30.12S
SLATON 2NE       N/A     73  63  71 NE1       30.11R
SNYDER 3E        N/A     78  63  61 SE8       30.07F
SUNDOWN 8SW      N/A     72  59  64 NE5       30.14S
TAHOKA 3NNE      N/A     76  61  58 SE9       30.11S
WOLFFORTH 6SSW   N/A     76  58  54 S3        30.13F
$$

TXZ031-032-036>038-042>044-271000-
TEXAS TECH WEST TEXAS MESONET/ROLLING PLAINS

CITY           SKY/WX    TMP DP  RH WIND       PRES   REMARKS
ASPERMONT 3NE    N/A     80  64  58 SE6       30.04F
FLUVANNA 3WNW    N/A     78  62  58 SE8       30.09F
GRAHAM 5SSW      N/A     77  63  63 SE9       30.10F
GUTHRIE 10WSW    N/A     80  63  56 SE6       30.05F
HASKELL 1NW      N/A     80  63  56 SE5       30.04S
JAYTON 1SSE      N/A     78  63  61 SE2       30.06S
KNOX CITY 3NW    N/A     79  62  54 E6        30.03F
LK A HENRY 1NW   N/A     80  64  57 SE6       30.07S
NORTHFIELD 1S    N/A     77  68  73 SE6       30.05F
ODELL 4ENE       N/A     77  66  68 E7        30.05S
PADUCAH 10SW     N/A     78  63  60 SE6       30.05F
POST 1NE         N/A     77  64  62 SE5       30.09S
RRING SPRGS 3N   N/A     72  67  86 S6        30.08F
SEYMOUR 3NW      N/A     79  62  57 NW7       30.03F
SPUR 1W          N/A     75  67  75 SE2       30.06S
WEINERT 2NNE     N/A     78  64  63 SE5       30.04F
WHITE RVR 6NE    N/A     76  64  66 SE5       30.09S
$$

TXZ052-054-060>062-072-078-127-140-154-169-271000-
TEXAS TECH WEST TEXAS MESONET/PERMIAN BASIN/
CONCHO VALLEY/BIG COUNTRY/EDWARDS PLATEAU

CITY           SKY/WX    TMP DP  RH WIND       PRES   REMARKS
JUNCTION 1SSW    N/A     73  68  86 CALM      30.05S
MERTZON 3NNE     N/A     74  63  69 W1        30.07S
SAN ANGELO 7NW   N/A     76  64  65 E6        30.05S
STRLNG CT 4WSW   N/A     77  64  63 SE5       30.08R
ST LAWRNCE 5SW   N/A     73  58  59 E7        30.08S
SWEETWATR 11SW   N/A     77  65  66 SE12      30.08F
WALL 1E          N/A     74  65  73 E1        30.05R
$$

TXZ055-058-074-075-080-082-271000-
TEXAS TECH WEST TEXAS MESONET/FAR WEST/SOUTHWEST MOUNTAINS/TRANS PECOS

CITY           SKY/WX    TMP DP  RH WIND       PRES   REMARKS
$$



USA.gov is the U.S. government's official web portal to all federal, state and local government web resources and services.